Quensel Arpt, British Columbia

3:49 AM PST on February 27, 2017 (GMT -0800)
Quesnel

Weather History for CYQZ - October, 2012

Change the Weather History Date:

Wednesday, October 31, 2012

  Actual Average Record
Temperature  
Mean Temperature 12 °F -  
Max Temperature 21 °F 34 °F 55 °F (2005)
Min Temperature 3 °F 22 °F 3 °F (2012)
Degree Days  
Heating Degree Days 53    
Moisture  
Dew Point 15 °F    
Average Humidity 91    
Maximum Humidity 100    
Minimum Humidity 85    
Precipitation  
Precipitation 0.00 in - - ()
Sea Level Pressure  
Sea Level Pressure 30.00 in    
Wind  
Wind Speed 3 mph ()    
Max Wind Speed 7 mph    
Max Gust Speed -    
Visibility 5.7 miles    
Events Rain , Snow    
Averages and records for this station are not official NWS values.
T = Trace of Precipitation, MM = Missing Value Source: Averaged Metar Reports

Daily Weather History Graph

Daily Weather History Graph

Search for Another Location

Airport or City:

Trip Planner

Search our weather history database for the weather conditions in past years. The results will help you decide how hot, cold, wet, or windy it might be!

Date:

Astronomy

Oct. 31, 2012 Rise Set
Actual Time 8:07 AM PDT 5:39 PM PDT
Civil Twilight 7:30 AM PDT 6:15 PM PDT
Nautical Twilight 6:49 AM PDT 6:56 PM PDT
Astronomical Twilight 6:09 AM PDT 7:36 PM PDT
Moon 6:37 PM PDT (10/31) 10:09 AM PDT (10/31)
Length of Visible Light 10h 45m
Length of Day
9h 32m
Waning Gibbous, 97% of the Moon is Illuminated
Oct 31
Waning Gibbous
Nov 6
Last Quarter
Nov 13
New
Nov 20
First Quarter
Nov 28
Full

Hourly Weather History & Observations

Time (PDT) Temp. Windchill Dew Point Humidity Pressure Visibility Wind Dir Wind Speed Gust Speed Precip Events Conditions
12:00 AM 3.2 °F - -0.4 °F 85% 30.20 in 8.0 mi Calm Calm - N/A   Clear
1:00 AM 6.8 °F - 3.2 °F 85% 30.17 in 9.0 mi Calm Calm - N/A   Scattered Clouds
2:00 AM 8.6 °F - 6.8 °F 92% 30.14 in 9.0 mi Variable 2.3 mph - N/A   Overcast
3:00 AM 12.2 °F - 10.4 °F 92% 30.12 in 9.0 mi WNW 2.3 mph - N/A   Overcast
4:00 AM 12.2 °F 4.3 °F 10.4 °F 92% 30.11 in 9.0 mi NW 4.6 mph - N/A   Overcast
5:00 AM 14.0 °F 3.9 °F 12.2 °F 93% 30.08 in 9.0 mi NW 6.9 mph - N/A   Overcast
5:20 AM 14.0 °F 8.2 °F 12.2 °F 93% 30.07 in 9.0 mi NNW 3.5 mph - N/A Snow Light Snow
5:44 AM 14.0 °F 6.5 °F 12.2 °F 93% 30.07 in 9.0 mi NW 4.6 mph - N/A   Overcast
6:00 AM 14.0 °F 5.1 °F 12.2 °F 93% 30.07 in 9.0 mi NNW 5.8 mph - N/A   Overcast
6:23 AM 14.0 °F 3.9 °F 10.4 °F 86% 30.07 in 9.0 mi NNW 6.9 mph - N/A Snow Light Snow
6:44 AM 14.0 °F 6.5 °F 10.4 °F 86% 30.06 in 9.0 mi NW 4.6 mph - N/A   Overcast
6:57 AM 14.0 °F 8.2 °F 10.4 °F 86% 30.06 in 8.0 mi NNW 3.5 mph - N/A Snow Light Snow
7:00 AM 14.0 °F 6.5 °F 10.4 °F 86% 30.07 in 7.0 mi NNW 4.6 mph - N/A Snow Light Snow
8:00 AM 15.8 °F 7.2 °F 12.2 °F 86% 30.05 in 9.0 mi North 5.8 mph - N/A Snow Light Snow
8:32 AM 15.8 °F 8.6 °F 12.2 °F 86% 30.05 in 9.0 mi NW 4.6 mph - N/A   Overcast
8:34 AM 15.8 °F 8.6 °F 12.2 °F 86% 30.05 in 9.0 mi NNW 4.6 mph - N/A Snow Light Snow
8:57 AM 15.8 °F 8.6 °F 12.2 °F 86% 30.04 in 8.0 mi NNW 4.6 mph - N/A   Overcast
9:00 AM 15.8 °F 7.2 °F 12.2 °F 86% 30.04 in 8.0 mi NW 5.8 mph - N/A   Overcast
9:52 AM 15.8 °F 10.2 °F 12.2 °F 86% 30.04 in 5.0 mi NW 3.5 mph - N/A   Overcast
10:00 AM 15.8 °F 10.2 °F 14.0 °F 93% 30.04 in 3.0 mi NW 3.5 mph - N/A   Overcast
10:07 AM 15.8 °F 10.2 °F 14.0 °F 93% 30.04 in 3.0 mi NW 3.5 mph - N/A Snow Light Snow
10:14 AM 15.8 °F 10.2 °F 14.0 °F 93% 30.04 in 2.5 mi NW 3.5 mph - N/A Snow Light Snow
10:20 AM 15.8 °F - 14.0 °F 93% 30.04 in 2.0 mi NNW 2.3 mph - N/A Snow Light Snow
10:34 AM 15.8 °F - 14.0 °F 93% 30.04 in 1.2 mi NNW 2.3 mph - N/A Snow Light Snow
10:36 AM 15.8 °F 10.2 °F 14.0 °F 93% 30.04 in 1.2 mi NW 3.5 mph - N/A Snow Light Snow
10:37 AM 15.8 °F 10.2 °F 14.0 °F 93% 30.04 in 1.2 mi NW 3.5 mph - N/A Snow Light Snow
10:50 AM 15.8 °F 8.6 °F 14.0 °F 93% 30.04 in 1.2 mi NNW 4.6 mph - N/A Rain , Snow Light Snow
10:55 AM 15.8 °F 10.2 °F 14.0 °F 93% 30.04 in 1.5 mi NW 3.5 mph - N/A Rain Light Freezing Rain
11:00 AM 15.8 °F 10.2 °F 14.0 °F 93% 30.04 in 1.5 mi NNW 3.5 mph - N/A Rain Light Freezing Rain
11:11 AM 15.8 °F 10.2 °F 15.8 °F 100% 30.03 in 2.0 mi NNW 3.5 mph - N/A Rain Light Freezing Rain
11:17 AM 15.8 °F - 14.0 °F 93% 30.03 in 3.0 mi NNW 2.3 mph - N/A Rain Light Freezing Rain
11:20 AM 15.8 °F 10.2 °F 14.0 °F 93% 30.03 in 4.0 mi NNW 3.5 mph - N/A   Overcast
11:21 AM 15.8 °F 10.2 °F 14.0 °F 93% 30.03 in 6.0 mi NNW 3.5 mph - N/A   Overcast
11:26 AM 15.8 °F - 14.0 °F 93% 30.03 in 8.0 mi NW 2.3 mph - N/A   Overcast
11:54 AM 15.8 °F - 14.0 °F 93% 30.03 in 9.0 mi NW 2.3 mph - N/A   Overcast
12:00 PM 15.8 °F - 14.0 °F 93% 30.03 in 9.0 mi NW 2.3 mph - N/A   Overcast
1:00 PM 17.6 °F 10.7 °F 15.8 °F 93% 30.01 in 9.0 mi NW 4.6 mph - N/A   Overcast
1:51 PM 17.6 °F 12.3 °F 15.8 °F 93% 29.99 in 9.0 mi NW 3.5 mph - N/A Snow Light Snow
2:00 PM 17.6 °F - 15.8 °F 93% 29.99 in 9.0 mi NW 2.3 mph - N/A Snow Light Snow
2:08 PM 17.6 °F - 15.8 °F 93% 29.99 in 6.0 mi NW 2.3 mph - N/A Snow Light Snow
2:11 PM 17.6 °F - 15.8 °F 93% 29.99 in 5.0 mi NW 2.3 mph - N/A Snow Light Snow
2:35 PM 17.6 °F 12.3 °F 15.8 °F 93% 29.97 in 3.0 mi NW 3.5 mph - N/A Snow Light Snow
2:36 PM 19.4 °F 14.3 °F 15.8 °F 86% 29.97 in 2.5 mi NW 3.5 mph - N/A Snow Light Snow
2:47 PM 19.4 °F 14.3 °F 15.8 °F 86% 29.96 in 3.0 mi NW 3.5 mph - N/A Snow Light Snow
3:00 PM 19.4 °F 11.5 °F 15.8 °F 86% 29.96 in 3.0 mi WNW 5.8 mph - N/A Snow Light Snow
3:10 PM 19.4 °F 12.8 °F 15.8 °F 86% 29.95 in 6.0 mi NW 4.6 mph - N/A Snow Light Snow
3:30 PM 19.4 °F 11.5 °F 17.6 °F 93% 29.96 in 5.0 mi WNW 5.8 mph - N/A Snow Light Snow
4:00 PM 19.4 °F 10.4 °F 17.6 °F 93% 29.95 in 5.0 mi NNW 6.9 mph - N/A Snow Light Snow
4:18 PM 19.4 °F 11.5 °F 17.6 °F 93% 29.94 in 6.0 mi North 5.8 mph - N/A Snow Light Snow
5:00 PM 19.4 °F 11.5 °F 17.6 °F 93% 29.93 in 9.0 mi NNW 5.8 mph - N/A Snow Light Snow
5:35 PM 21.2 °F 14.9 °F 17.6 °F 86% 29.93 in 5.0 mi North 4.6 mph - N/A Snow Light Snow
5:40 PM 21.2 °F 14.9 °F 17.6 °F 86% 29.93 in 6.0 mi North 4.6 mph - N/A Snow Light Snow
5:41 PM 21.2 °F 14.9 °F 17.6 °F 86% 29.93 in 6.0 mi North 4.6 mph - N/A Snow Light Snow
6:00 PM 21.2 °F 14.9 °F 17.6 °F 86% 29.92 in 9.0 mi North 4.6 mph - N/A Snow Light Snow
7:00 PM 21.2 °F 16.4 °F 17.6 °F 86% 29.91 in 9.0 mi NW 3.5 mph - N/A Snow Light Snow
7:55 PM 21.2 °F - 19.4 °F 93% 29.90 in 5.0 mi NNW 2.3 mph - N/A Snow Light Snow
7:58 PM 21.2 °F - 19.4 °F 93% 29.90 in 5.0 mi NNW 2.3 mph - N/A Snow Light Snow
7:59 PM 21.2 °F - 19.4 °F 93% 29.90 in 5.0 mi NNW 2.3 mph - N/A Snow Light Snow
8:00 PM 21.2 °F - 19.4 °F 93% 29.90 in 5.0 mi NNW 2.3 mph - N/A Snow Light Snow
8:06 PM 21.2 °F - 19.4 °F 93% 29.90 in 6.0 mi NNW 2.3 mph - N/A Snow Light Snow
8:11 PM 21.2 °F - 19.4 °F 93% 29.90 in 7.0 mi NW 2.3 mph - N/A Snow Light Snow
8:31 PM 21.2 °F - 19.4 °F 93% 29.90 in 5.0 mi NW 2.3 mph - N/A Snow Light Snow
8:37 PM 21.2 °F 16.4 °F 19.4 °F 93% 29.90 in 6.0 mi NW 3.5 mph - N/A Snow Light Snow
8:41 PM 21.2 °F 16.4 °F 19.4 °F 93% 29.90 in 5.0 mi NNW 3.5 mph - N/A Snow Light Snow
8:49 PM 21.2 °F 16.4 °F 19.4 °F 93% 29.90 in 4.0 mi NNW 3.5 mph - N/A Snow Light Snow
9:00 PM 21.2 °F 16.4 °F 19.4 °F 93% 29.90 in 4.0 mi NNW 3.5 mph - N/A Snow Light Snow
9:04 PM 21.2 °F - 19.4 °F 93% 29.90 in 4.0 mi North - - N/A   Unknown
10:00 PM 21.2 °F - 19.4 °F 93% 29.90 in - North - - N/A   Unknown
10:29 PM 21.2 °F - 19.4 °F 93% 29.90 in 1.0 mi North 2.3 mph - N/A Snow Light Snow
11:00 PM 21.2 °F 16.4 °F 19.4 °F 93% 29.91 in 1.0 mi North 3.5 mph - N/A Snow Light Snow
11:49 PM 21.2 °F 14.9 °F 19.4 °F 93% 29.91 in 1.2 mi NNW 4.6 mph - N/A Snow Light Snow